CZ-4B DEB - Orbit

View from above orbital plane
View from above orbital plane
View from above satellite
View from above satellite

Ground track
Ground track

The orbit data is extracted from the following two-line orbital elements,

1 33411U 08053D   13141.10526502  .00008331  00000-0  64160-3 0  9332
2 33411 097.5415 164.9388 0014860 144.9547 215.2658 15.01808092249308
Epoch (UTC): 21 May 2013 02:31:34
Eccentricity: 0.0014860
inclination: 97.5415°
perigee height: 551 km
apogee height: 571 km
right ascension of ascending node: 164.9388°
argument of perigee: 144.9547°
revolutions per day: 15.01808092
mean anomaly at epoch: 215.2658°
orbit number at epoch: 24930

The dashed part of the orbit path shows where the satellite is in the earth's shadow,  

Developed and maintained by Chris Peat, Heavens-Above GmbH. Please read the updated FAQ before sending e-mail. Imprint. DLR